DECAYED

STARLINK-2258, 47860 (Decayed)

Orbit data source: Space-Track

STARLINK-2258, 47860 was a payload satellite owned by SpaceX/Seattle (US) in LEO that was launched on Sun, 14 Mar 2021 UTC via an FALCON 9 launch vehicle from the Air Force Eastern Test Range (AFETR). Payload-class satellites include a variety of spacecraft equipped with specific instruments for various scientific and technological missions. These include communications satellites like Starlink; space stations such as the ISS; scientific satellites like the Hubble; Earth observation satellites from companies like Planet Labs, Umbra, and HawkEye 360; GPS; miniature CubeSats for education and research; and military/defense satellites.

Not visible in the next 10 days
Identifier
47860, 2021-021A
Orbit
Decayed
Country
Flag of USUS
Related business
Manufacturer
SpaceX/Seattle
Mission
Decayed Commercial Communications
Bus & Motor
STARLINK, Unknown motor
Mass
260 kg wet, ~248 kg dry
Launch date (UTC)
2021-03-14 (5 years ago)
Launch vehicle
FALCON 9
Launch site
Air Force Eastern Test Range (AFETR)
Object type
Payload
Rocket body
Debris
Shape & HBR
Box + 1 Pan, 10.1 m
Radar Cross Section
13.562 m², Large (>1 m²)

Expand to show TLE details & history
Last TLE update: 1 year ago

TLE from 1 year ago
0 STARLINK-2258
1 47860U 21021A   25029.88846302  .10405965  12241-4  91442-3 0  9995
2 47860  53.0321 262.9373 0007025 229.9433 204.1351 16.38361482215140
Epoch: 2025-01-29T21:19Z
TLE epoch observation values (Epoch: 2025-01-29T21:19:23.204Z)
Latitude
50.348°
Longitude
-121.7366°
Altitude
180.202 km
Speed
7.802 km/s
True Right ascension
21h 49m 56s
True Declination
50° 09' 50"
Sunlit
Object was in daylight at epoch
Visualization orbit readout
Latitude
Unknown
Longitude
Unknown
Altitude
Unknown
Speed
Unknown
Apparent Right ascension
Unknown
Apparent Declination
Unknown
Sunlit
N/A
Visualization observer readout
Local Sidereal Time
21:30:44
Azimuth
Unknown
Elevation
Unknown
Doppler factor
Unknown
Orbital elements
Apogee altitude
175.055 km
Perigee altitude
165.854 km
Semi-major axis
6,548.591 km
Eccentricity
0.0007
Inclination
53.0321°
RAAN
262.9373°
Arg. of periapsis
229.9433°
True anomaly
204.10221°
Mean anomaly
204.1351°
Eccentric anomaly
204.11865°
Mean motion
4.09564 °/min
Orbital period
87.9 mins
BSTAR
0.00091442
Loading maneuver chart data...
Computing Atmospheric mass density...

Documentation

Showing up to 5 results
|